Location: Peterborough
(44.3091°N, 78.3197°W)
Time: 06:25:59
(UTC-04:00)

Vanguard 3 - Pass Details

Date: 26 February 2024
Orbit: 510 x 3236 km, 33.3° (Epoch: 12 April)

Event Time Altitude Azimuth Distance (km) Brightness Sun altitude
Rises 03:15:57 0° 277° (W) 6,608 - -39.0°
Reaches altitude 10° 03:22:39 10° 263° (W) 5,097 - -38.0°
Maximum altitude 03:30:43 18° 228° (SW) 3,713 - -36.7°
Drops below altitude 10° 03:36:48 10° 189° (S) 3,660 - -35.7°
Sets 03:40:31 0° 170° (S) 4,193 - -35.1°
